AirNav   Bose A20 Aviation Headset
 
 355 users online  

T59 Wheeler Municipal Airport
Wheeler, Texas, USA

GOING TO WHEELER?


FAA INFORMATION EFFECTIVE 11 OCTOBER 2018

Location

FAA Identifier: T59
Lat/Long: 35-27-03.9000N / 100-11-59.7000W
35-27.065000N / 100-11.995000W
35.4510833 / -100.1999167
(estimated)
Elevation: 2469.9 ft. / 752.8 m (surveyed)
Variation: 05E (2020)
From city: 4 miles E of WHEELER, TX
Time zone: UTC -5 (UTC -6 during Standard Time)
Zip code: 79096

Airport Operations

Airport use: Open to the public
Activation date: 07/1985
Control tower: no
ARTCC: ALBUQUERQUE CENTER
FSS: FORT WORTH FLIGHT SERVICE STATION
NOTAMs facility: FTW (NOTAM-D service available)
Attendance: UNATNDD
Wind indicator: lighted
Segmented circle: yes
Lights: LIGHTS OTS INDEFLY.
Beacon: white-green (lighted land airport)
Operates sunset to sunrise.

Airport Communications

CTAF: 122.9
  • APCH/DEP SVC PRVDD BY ALBUQUERQUE ARTCC ON FREQS 127.85/285.475 (AMARILLO RCAG).

Airport Services

Fuel available: 100LL
FOR FUEL CALL 806-826-5537 (SHERIFF'S OFFICE).
Parking: tiedowns

Runway Information

Runway 17/35

Dimensions: 3565 x 60 ft. / 1087 x 18 m
Surface: asphalt, in good condition
Weight bearing capacity: 
Single wheel: 12.0
Runway edge lights: low intensity
RUNWAY 17  RUNWAY 35
Latitude: 35-27.357898N35-26.770397N
Longitude: 100-11.996342W100-11.992372W
Elevation: 2430.6 ft.2469.9 ft.
Traffic pattern: leftleft
Runway heading: 175 magnetic, 180 true355 magnetic, 360 true
Displaced threshold: no57 ft.
Markings: nonprecision, in good conditionnonprecision, in good condition
Touchdown point: yes, no lightsyes, no lights
Obstructions: none
3 FT BRUSH, 98 FT RIGHT AND 74 FT LEFT, 36 FT FM THR.
20 ft. road, 564 ft. from runway, 18:1 slope to clear
4 FT SHRUBS 90 FT FM THLD 96 FT L OF CNTRLN.

Airport Ownership and Management from official FAA records

Ownership: Publicly-owned
Owner: CITY OF WHEELER TX
PO BOX 98
WHEELER, TX 79096
Phone 806-826-3222
Manager: PAUL ARGNBRIGHT
PO BOX 98
WHEELER, TX 79096
Phone (806) 669-4182
PUBLIC WORKS DIRECTOR

Airport Operational Statistics

Aircraft based on the field: 2
Single engine airplanes: 1
Helicopters: 1
    
Aircraft operations: avg 25/month *
67% local general aviation
33% transient general aviation
* for 12-month period ending 14 March 2018

Additional Remarks

407 FT AGL TWR 19 NM SSW OF ARPT.
+10 FT RISING TERRAIN 100 FT L OF CNTRLN.

Instrument Procedures

NOTE: All procedures below are presented as PDF files. If you need a reader for these files, you should download the free Adobe Reader.

NOT FOR NAVIGATION. Please procure official charts for flight.
FAA instrument procedures published for use from 11 October 2018 at 0901Z to 8 November 2018 at 0900Z.

 
IAPs - Instrument Approach Procedures
RNAV (GPS)-A   download (141KB)
RNAV (GPS)-B   download (157KB)
NOTE: Special Take-Off Minimums/Departure Procedures apply   download (113KB)

Other nearby airports with instrument procedures:

KHHF - Hemphill County Airport (28 nm N)
KELK - Elk City Regional Business Airport (39 nm E)
KPPA - Perry Lefors Field Airport (40 nm W)
1X1 - Higgins-Lipscomb County Airport (40 nm N)
O35 - Hollis Municipal Airport (47 nm S)
 
Loc | Ops | Rwys | IFR | FBO | Links
Com | Nav | Svcs | Stats | Notes


 
Area around T59 (Wheeler Municipal Airport)
 
Road maps at: MapQuest Bing Google
 
Aerial photo
WARNING: Photo may not be current or correct
Aerial photo of T59 (Wheeler Municipal Airport)
Do you have a better or more recent aerial photo of Wheeler Municipal Airport that you would like to share? If so, please send us your photo.

 
Sectional chart

 
Airport distance calculator
Flying to Wheeler Municipal Airport? Find the distance to fly.

From to T59

Sunrise and sunset
Times for 16-Oct-2018
 Local
(UTC-5)
 Zulu
(UTC)
Morning civil twilight07:2312:23
Sunrise07:4912:49
Sunset19:0400:04
Evening civil twilight19:2900:29

Current date and time
Zulu (UTC)  16-Oct-2018 09:01:52
Local (UTC-5)  16-Oct-2018 04:01:52
 
METAR
KHHF 
29nm N 
160855Z AUTO 00000KT 10SM SCT080 SCT120 04/02 A3035 RMK AO2 T00380022
KPPA 
38nm W 
160855Z AUTO 34005KT 10SM SCT065 BKN075 OVC090 05/M01 A3034 RMK AO2 T00511007
KELK 
39nm E 
160855Z AUTO 36007KT 10SM -RA OVC090 04/02 A3034 RMK AO2 P0004 60004 T00430020
KBPC 
48nm NW 
160855Z AUTO 00000KT 10SM OVC075 04/01 A3036 RMK AO2
KCSM 
49nm E 
160853Z AUTO 01010KT 10SM OVC090 05/00 A3035 RMK AO2 SLP281 T00500000 58008
TAF
KCSM 
49nm E 
160520Z 1606/1706 01007KT P6SM BKN120 FM170200 12005KT P6SM BKN250
NOTAMs
Click for the latest NOTAMs
NOTAMs are issued by the DoD/FAA and will open in a separate window not controlled by AirNav.

 

 
 

FBO, Fuel Providers, and Aircraft Ground Support

  
 Business Name 
 
 Contact 
 
 Services / Description 
 
Fuel Prices
 
Comments
  
City of Wheeler 806-826-3222
no information available

If you are affiliated with City of Wheeler and would like to show here your services, contact info, web link, logo, and more, click here
no prices available
 
   1 read write
Update Fuel Prices
 

Would you like to see your business listed on this page?

 If your business provides an interesting product or service to pilots, flight crews, aircraft, or users of the Wheeler Municipal Airport, you should consider listing it here.  To start the listing process, click on the button below
 
Add a business
 

Other Pages about Wheeler Municipal Airport

Update a link
 
Copyright © AirNav, LLC. All rights reserved. Privacy Policy  Contact